Simultaneous Nadir Overpasses (SNOs) Predictions

Prediction of SNOs between METOP-B and TERRA Satellite Orbit:

Table of predicted SNOs for the next 14.0 days since TLE Epoch: 5/29/2021
Index Date (METOP-B) Time (METOP-B) Lat,Lon (METOP-B) SZA (METOP-B ) Date (TERRA) Time (TERRA) Lat,Lon (TERRA) SZA (TERRA ) Distance(km) Time Diff (sec)
1 05/30/2021 19:48:51 -81.26, 108.03 117.86 05/30/2021 19:49:37 -81.27, 108.11 117.83 1.60 46
2 05/30/2021 20:39:30 81.27, -84.04 62.21 05/30/2021 20:39:03 81.27, -84.16 62.19 2.12 27
3 06/02/2021 15:23:14 -81.26, 174.42 118.25 06/02/2021 15:23:48 -81.26, 174.41 118.24 0.14 34
4 06/02/2021 16:13:54 81.26, -18.09 61.77 06/02/2021 16:13:14 81.26, -17.89 61.77 3.26 40
5 06/05/2021 10:57:38 -81.26,-119.22 118.59 06/05/2021 10:58:00 -81.25,-119.33 118.60 2.18 22
6 06/05/2021 11:48:17 81.27, 48.62 61.47 06/05/2021 11:47:25 81.27, 48.71 61.46 1.53 52
7 06/08/2021 06:32:02 -81.26, -52.88 118.89 06/08/2021 06:32:11 -81.26, -52.74 118.87 2.35 9
8 06/08/2021 07:22:40 81.27, 115.31 61.22 06/08/2021 07:21:36 81.28, 115.27 61.19 0.96 64
9 06/11/2021 01:15:43 81.26,-153.70 60.90 06/11/2021 01:16:54 81.26,-153.85 60.92 2.59 71



Historial Predications of SNOs between METOP-B and TERRA
